Content
SEND FEEDBACK

Daily
Averages
Monthly
Summary
United States of America

CHESTERFIELD, MISSOURI


Home > North America > United States > Missouri
Elevation: 559 feet     Latitude: 38 41N     Longitude: 090 31W

WEATHER
 
SELECT A DAY
Number of Records: 203,439;   Date Range: 1/1/95 - 7/29/14
 
SHARE

PRINT THIS DATA

[ ← Previous Day ]
WEATHER ALMANAC - JULY 3, 2013
[ Next Day → ]
[ °C ]   °F
Weather ElementAverageHighLow
Temperature73.6 °F82 °F (3:51 pm)64 °F (3:51 am)
Dewpoint58.8 °F61 °F (1:51 am)55.9 °F (11:51 am)
Humidity61.9 %90 % (4:51 am)43 % (1:51 pm)
Barometer30.04 in30.08 in (8:51 am)30.00 in (5:51 pm)
Wind Speed3.9 mph9.2 mph (7:51 pm)
Weather ElementAverage
Visibility9.8 mi
Wind DirectionESE (124.8 °)

Weather ElementTotal
Precipitation---
Cooling Degree Days8 (Base 65)
Growing Degree Days23 (Base 50)
Averaged from 23 records on July 3, 2013
WEATHER CONDITIONS BREAKOUT
WIND DIRECTION BREAKOUT
WEATHER BY HOUR - JULY 3, 2013
[ °C ]   °F
Local TimeTemperatureDewpointHumidityBarometerVisibilityWind DirectionWind SpeedGust SpeedPrecipitationEventsConditions
1:51 AM64.9 °F61.0 °F87 %30.03 in9.0 miCalmMostly Cloudy
2:51 AM66.0 °F60.1 °F81 %30.02 in9.0 miCalmMostly Cloudy
3:51 AM64.0 °F60.1 °F87 %30.03 in9.0 miWest (280°)4.6 mphMostly Cloudy
4:51 AM64.0 °F61.0 °F90 %30.04 in9.0 miWest (270°)4.6 mphMostly Cloudy
5:51 AM64.0 °F60.1 °F87 %30.05 in10.0 miWest (260°)3.5 mphMostly Cloudy
6:51 AM64.9 °F59.0 °F81 %30.06 in10.0 miWSW (240°)3.5 mph0.00 inRainLight Rain
7:51 AM68.0 °F60.1 °F76 %30.06 in10.0 miWest (280°)3.5 mph0.00 inMostly Cloudy
8:51 AM71.1 °F59.0 °F66 %30.08 in10.0 miCalmMostly Cloudy
9:51 AM72.0 °F60.1 °F66 %30.08 in10.0 miCalmScattered Clouds
10:51 AM77.0 °F57.0 °F50 %30.07 in10.0 miCalmScattered Clouds
11:51 AM79.0 °F55.9 °F45 %30.06 in10.0 miCalmScattered Clouds
12:51 PM79.0 °F57.9 °F48 %30.06 in10.0 miCalmScattered Clouds
1:51 PM80.1 °F55.9 °F43 %30.04 in10.0 miCalmMostly Cloudy
2:51 PM79.0 °F57.0 °F47 %30.04 in10.0 miVariable3.5 mphMostly Cloudy
3:51 PM82.0 °F59.0 °F45 %30.03 in10.0 miSouth (170°)4.6 mphMostly Cloudy
4:51 PM79.0 °F57.9 °F48 %30.02 in10.0 miSSE (160°)8.1 mphMostly Cloudy
5:51 PM80.1 °F57.9 °F47 %30.00 in10.0 miSSW (200°)4.6 mphScattered Clouds
6:51 PM80.1 °F57.9 °F47 %30.00 in10.0 miSSW (200°)6.9 mphScattered Clouds
7:51 PM79.0 °F57.9 °F48 %30.01 in10.0 miSSE (160°)9.2 mphScattered Clouds
8:51 PM77.0 °F59.0 °F54 %30.02 in10.0 miSSE (160°)8.1 mphPartly Cloudy
9:51 PM75.0 °F59.0 °F57 %30.04 in10.0 miSSE (160°)8.1 mphClear
10:51 PM73.9 °F60.1 °F62 %30.04 in10.0 miSSE (160°)8.1 mphPartly Cloudy
11:51 PM73.0 °F59.0 °F61 %30.05 in10.0 miSouth (170°)9.2 mphClear
Hourly data recorded from KSTL, located miles away from Chesterfield, Missouri







STORIES FROM OUR PARTNERS